Temp_Advection
nan nan nan nan nan nan nan nan nan nan nan nan nan nan nan nan nan nan nan nan nan nan nan nan nan nan nan nan nan nan nan nan nan nan nan nan nan nan nan nan nan nan nan nan nan nan nan nan nan
nan 0 0 0 -0 0 -0 -1 -0 -0 -0 -1 -1 -1 -0 -0 0 1 0 0 0 0 0 0 -0 0 0 0 0 0 0 0 0 0 0 0 0 -0 0 0 0 0 0 0 -0 -0 -0 -0 nan
nan 0 0 -0 -0 -0 -1 -0 -0 -0 -0 0 -1 -1 -0 -0 -0 0 0 0 0 0 0 0 0 0 0 0 0 0 0 0 0 -0 -0 -0 0 0 0 0 0 0 0 0 -0 0 0 0 nan
nan 0 0 -0 -0 -1 -1 -1 -0 -1 -0 0 -3 -1 -0 0 0 0 0 0 0 0 0 1 1 1 1 1 1 1 0 0 0 0 0 0 0 0 0 0 0 0 0 0 -0 0 0 0 nan
nan 0 -0 -0 -0 -1 -1 -1 -0 -1 0 0 -0 -1 -0 0 0 0 0 0 0 0 0 1 1 1 1 1 1 0 0 0 0 0 0 0 0 0 0 -0 -0 -0 -0 -0 -0 -0 0 0 nan
nan 0 -0 -0 -1 -0 -1 -1 -0 -0 0 -1 -1 -1 0 0 0 -0 -0 -0 0 -0 0 0 0 0 1 1 0 0 0 0 0 0 0 0 0 -0 -0 -0 -0 -0 0 0 -0 -0 -0 -0 nan
nan -0 -0 -0 -0 -1 -1 -0 -0 -0 -0 -0 -2 -1 -0 0 0 0 0 0 0 0 0 0 -0 0 -0 0 0 1 1 0 0 0 0 0 0 0 -0 0 0 0 0 0 -0 -0 0 -0 nan
nan -0 -0 -0 -0 -1 -1 -1 0 -0 -0 -0 -0 -1 -1 -1 0 1 1 1 0 0 1 0 -0 -0 -0 -0 0 0 0 0 0 0 0 0 0 0 -0 0 0 0 0 0 0 0 -0 -0 nan
nan -0 0 -1 -0 -1 -1 -0 -0 -0 -0 0 0 -0 -0 -2 -0 0 0 0 0 0 0 -0 -0 -0 0 0 -0 -0 -0 -0 0 0 -0 0 0 0 0 0 0 0 0 0 0 0 -0 -0 nan
nan -0 -1 -1 -0 -1 -0 -0 -0 0 -0 -0 0 0 1 1 0 0 -0 -1 -1 -1 -0 -0 0 0 0 0 0 -0 0 0 0 0 0 0 0 -0 0 0 0 0 0 0 0 0 0 -0 nan
nan -0 -1 -1 -1 -0 0 -0 -0 0 -0 -1 -1 -2 0 1 0 -0 -0 -1 -0 -0 -0 -0 0 0 0 0 0 0 0 0 0 0 0 0 -0 0 0 0 0 0 0 0 0 0 -0 -0 nan
nan -0 -0 -0 -0 0 -0 -0 0 0 -0 -0 0 -1 -2 -1 -1 -0 -0 0 0 0 0 1 1 0 0 0 0 0 0 0 0 0 0 0 0 0 -0 0 0 0 0 0 0 0 -0 -0 nan
nan -0 -1 -1 -1 -0 0 0 -0 -0 0 1 1 1 0 -1 -1 -0 0 0 1 1 1 1 1 1 1 1 0 0 0 0 0 0 0 0 0 -0 0 0 0 0 0 0 0 0 -0 -0 nan
nan -0 -1 -1 -0 0 0 -0 -0 -0 1 1 1 0 -0 -0 -0 -1 -1 0 0 0 1 1 1 1 1 1 0 0 0 0 0 0 0 0 0 0 0 0 0 0 0 0 0 0 -0 -0 nan
nan 0 -1 -1 -0 -0 0 0 -0 -1 1 2 2 1 0 1 -0 -1 -1 -0 -0 0 1 0 1 1 1 0 0 1 0 0 0 0 0 0 0 0 0 0 0 0 0 0 0 -0 -0 -0 nan
nan -0 -0 -1 -0 0 -0 -0 -2 1 0 1 1 0 0 1 0 1 1 1 0 0 1 0 1 0 0 0 0 0 0 0 0 0 0 0 0 0 0 0 0 0 0 0 0 0 0 -0 nan
nan -0 -0 -0 -0 -0 -0 0 -1 -1 -0 -1 -1 -1 0 0 1 1 1 1 1 1 0 0 0 -0 0 0 0 0 0 0 0 0 0 0 0 0 0 0 0 0 0 0 0 0 0 0 nan
nan -0 -0 -0 -0 -0 -0 0 -1 -1 0 0 -1 -0 1 -0 1 1 2 1 1 1 1 0 -0 0 0 0 0 0 0 0 0 0 0 0 0 0 0 0 0 0 0 0 0 0 0 -0 nan
nan 0 -0 -0 -0 0 0 0 -0 -1 0 0 -1 0 2 3 3 1 1 1 1 1 1 0 0 0 0 0 0 0 0 0 0 0 0 0 0 0 0 0 0 0 0 0 0 0 0 -0 nan
nan 0 -0 -0 -0 0 0 1 0 -0 -1 -1 1 2 1 1 1 1 1 1 1 0 -0 0 0 0 -0 0 0 1 1 0 0 0 0 0 0 0 0 0 0 0 0 0 0 0 0 -0 nan
nan -0 0 -0 -0 0 0 -0 0 -0 -1 -1 -1 2 0 1 0 1 2 1 0 -0 -0 0 0 0 0 1 1 0 -0 -0 0 0 0 0 0 0 0 0 0 0 0 -0 0 0 0 0 nan
nan -0 0 0 0 -0 0 -0 -1 -0 -0 -1 -1 2 -0 1 -0 0 0 -0 0 0 0 0 1 1 1 1 0 -0 -0 0 -0 0 0 0 0 0 0 0 0 0 0 0 0 0 0 0 nan
nan 0 0 0 0 -0 0 -0 -2 -0 0 -1 -1 0 2 -0 1 1 1 1 1 1 0 1 1 1 0 0 -0 0 0 0 0 0 0 0 0 0 0 0 0 0 0 -0 -0 -0 0 0 nan
nan 0 0 0 0 -0 -0 -0 -0 -0 -0 0 0 -1 2 2 1 2 2 2 1 1 1 1 1 0 1 0 0 0 0 0 0 0 0 0 0 0 0 0 0 0 0 0 0 0 0 0 nan
nan 0 0 -0 -0 -1 -0 0 -0 -0 0 0 -0 0 1 2 1 1 0 -0 0 0 1 1 0 0 1 0 0 0 -0 0 0 0 0 0 0 0 0 0 0 0 0 0 0 0 0 0 nan
nan 0 -0 -0 -0 -1 0 0 -0 -0 0 1 -0 -0 0 0 -0 -0 -1 -0 -0 0 1 0 0 0 -0 -0 0 0 0 1 0 0 0 0 0 0 0 0 0 0 0 0 0 0 0 0 nan
nan 0 0 0 0 0 -0 -0 -0 -0 -0 -0 1 1 0 -0 -1 -0 -0 0 -0 1 0 -0 0 0 0 0 1 1 1 0 0 0 1 1 0 0 0 0 0 0 0 0 0 0 0 0 nan
nan 0 0 -0 -0 -0 0 0 0 -0 -0 -1 -1 0 0 0 0 1 0 -0 0 1 -0 0 0 0 1 0 0 1 0 0 1 1 1 1 0 -0 -0 0 0 0 0 0 0 0 0 0 nan
nan -0 -0 -0 0 0 0 -0 -0 -0 -0 -0 0 0 -0 0 0 -0 0 0 1 0 0 1 1 1 1 0 0 1 1 1 1 1 1 0 -0 -0 0 0 0 0 0 0 0 0 0 0 nan
nan nan nan nan nan nan nan nan nan nan nan nan nan nan nan nan nan nan nan nan nan nan nan nan nan nan nan nan nan nan nan nan nan nan nan nan nan nan nan nan nan nan nan nan nan nan nan nan nan
Wind_Speed
8 7 4 2 3 4 5 5 4 9 5 2 8 12 11 7 3 3 15 21 21 25 25 23 22 22 21 21 20 19 19 18 17 16 15 12 11 9 7 6 4 3 1 1 1 2 3 4 5
7 5 5 2 4 1 6 6 5 5 5 21 11 10 5 6 6 18 22 21 20 22 23 23 22 21 20 20 19 19 18 17 15 15 13 11 10 8 7 5 3 2 1 1 2 3 5 6 7
5 4 3 3 3 6 5 3 4 10 18 9 7 11 5 5 18 23 24 23 21 20 19 21 21 21 20 20 19 19 18 17 15 14 13 12 10 8 7 5 3 3 3 3 4 5 6 7 7
3 2 2 2 10 8 5 15 19 10 16 4 18 8 8 10 20 20 25 23 21 19 17 19 21 22 22 20 20 19 17 16 15 13 11 10 9 8 6 4 4 3 3 3 3 4 5 6 7
4 3 0 3 6 7 7 24 21 11 4 11 6 7 5 12 15 24 25 23 21 21 18 17 23 23 22 21 20 18 16 14 12 10 9 9 9 8 7 6 4 4 3 3 3 4 5 6 6
3 1 2 4 6 7 8 29 7 3 3 12 9 9 6 13 19 23 23 21 20 17 17 21 20 18 20 19 19 18 16 14 11 11 11 10 9 8 7 6 5 4 4 3 4 6 7 8 9
6 3 5 6 7 8 11 8 2 2 5 3 17 7 11 21 22 22 21 20 19 18 19 23 20 18 18 19 16 14 14 13 13 13 13 12 12 10 9 8 7 6 5 4 7 8 8 10 10
5 4 4 4 7 10 12 11 4 4 6 9 1 8 9 28 27 24 22 21 17 19 19 21 22 22 19 14 12 13 15 15 16 16 15 14 13 11 11 10 8 7 5 6 9 9 8 9 9
15 2 5 6 4 9 20 5 2 2 7 4 1 10 5 28 30 28 25 21 20 21 20 20 19 17 16 15 13 14 15 16 18 17 13 12 11 10 12 10 9 8 7 8 7 7 6 6 7
4 4 8 8 8 7 9 3 6 1 3 4 7 8 17 30 32 33 30 27 25 23 21 19 20 18 19 19 19 17 16 17 19 16 15 15 13 12 13 12 9 7 7 7 6 5 3 3 4
2 5 6 15 27 16 9 6 6 1 3 13 17 26 30 32 33 32 32 28 24 21 21 19 19 18 18 19 19 20 20 20 20 19 17 16 14 13 10 7 7 7 6 4 3 1 1 1 2
4 10 5 8 15 7 5 7 6 6 7 7 16 25 33 34 35 35 34 30 29 26 23 21 19 18 18 18 18 20 20 20 20 18 17 15 13 11 11 9 7 6 5 4 3 2 1 2 3
5 4 19 24 21 23 10 7 8 17 9 10 19 27 31 31 31 30 30 29 28 25 24 23 21 21 20 19 19 21 19 18 17 17 16 14 13 12 10 8 7 7 7 5 3 2 1 2 2
8 15 20 21 28 17 7 10 2 16 17 18 24 31 30 31 32 31 33 32 30 25 25 26 25 24 23 21 21 20 17 15 15 15 16 15 13 11 9 9 9 8 6 4 3 1 1 1 2
12 7 9 17 12 8 17 9 7 28 21 25 30 32 31 31 30 32 32 33 29 27 27 27 25 20 21 22 20 18 17 15 14 14 15 14 12 11 11 10 8 6 4 3 1 0 1 1 1
6 5 2 7 4 6 8 7 17 22 25 27 31 31 31 33 35 34 32 31 29 27 31 31 28 24 24 24 22 19 18 16 14 14 15 14 12 11 10 9 7 5 4 3 2 1 0 1 2
3 4 5 6 2 4 3 5 9 10 23 25 31 36 36 35 38 39 36 35 32 29 32 32 30 29 26 23 22 21 19 15 12 14 14 13 12 10 10 8 7 5 4 3 3 1 1 2 4
5 5 6 7 5 4 7 7 7 12 11 21 31 34 37 41 45 45 43 38 32 31 30 30 29 28 26 24 21 19 17 13 13 14 14 14 12 11 10 9 7 6 4 3 2 1 1 2 8
7 9 10 4 8 5 8 9 10 14 11 15 26 32 39 43 41 44 43 38 34 31 30 29 29 27 26 24 22 20 16 15 14 15 15 14 13 11 10 9 8 5 3 4 3 2 3 5 11
14 11 7 6 4 6 12 22 10 7 10 12 23 25 24 30 40 45 44 41 38 36 30 27 28 27 25 21 19 18 17 15 14 15 15 14 12 11 10 7 5 5 3 2 2 1 4 9 15
6 5 5 8 3 3 5 17 7 5 11 17 23 30 33 44 47 48 47 45 42 36 28 26 26 25 25 24 23 21 19 18 18 16 14 13 11 10 8 6 5 3 3 3 3 2 3 5 8
7 7 8 5 3 5 4 13 14 12 14 14 23 21 38 40 42 48 50 48 43 35 28 24 24 28 28 27 24 22 20 20 16 14 13 12 11 10 8 6 5 4 4 3 2 1 2 3 5
17 9 9 4 4 3 9 5 18 1 9 19 19 34 24 46 50 57 55 49 43 35 29 26 25 29 29 25 22 20 17 15 15 15 13 13 12 10 8 7 6 4 3 3 2 1 1 3 5
11 5 8 4 4 8 17 7 15 10 12 10 10 22 23 43 42 44 48 47 42 35 30 27 29 30 27 25 24 23 21 20 20 17 15 14 12 11 9 7 5 4 3 3 2 2 2 3 4
6 4 5 3 3 13 15 8 16 13 7 7 4 5 18 34 40 46 48 45 38 33 33 31 30 30 28 28 27 26 25 20 19 15 16 15 13 11 9 7 6 5 5 4 2 2 1 3 4
15 8 5 7 10 15 8 7 7 9 10 13 21 28 31 32 32 39 44 40 38 36 35 34 30 31 30 29 28 28 24 21 20 18 17 14 12 10 9 8 7 7 6 5 3 3 3 4 5
14 9 7 7 12 9 7 7 8 2 5 6 8 24 31 38 43 45 40 36 34 35 38 34 31 32 28 27 28 25 24 24 23 22 18 15 13 11 10 9 9 8 7 6 5 4 3 4 6
7 3 4 3 6 16 5 5 5 2 4 8 9 9 9 20 28 33 41 40 39 41 38 32 31 29 28 28 29 28 27 26 24 22 19 17 15 13 11 11 10 9 8 7 6 5 6 5 6
4 4 3 3 4 5 4 4 3 5 6 3 4 12 14 9 23 32 38 39 42 41 34 33 31 26 28 29 29 30 28 26 24 22 20 18 15 13 12 11 10 10 10 9 7 8 8 8 8
13 13 7 4 5 3 3 6 4 4 5 8 10 4 6 8 4 10 30 39 44 40 38 36 32 26 27 28 29 29 28 26 25 24 22 20 17 14 13 12 12 11 11 11 10 10 10 9 10
Wind_Direction
323 315 284 277 48 61 264 264 253 296 257 337 54 99 107 51 53 170 146 168 170 165 169 172 176 175 171 171 168 164 161 160 158 157 156 156 155 151 149 146 139 129 117 78 11 349 341 340 337
326 290 260 166 99 37 270 223 215 265 242 124 88 99 75 99 119 132 131 157 161 167 170 172 175 175 174 172 168 164 163 161 160 158 158 160 162 163 163 161 166 192 243 272 305 319 322 326 325
325 266 227 127 152 204 231 257 240 298 268 192 116 80 94 100 138 143 149 162 164 163 170 171 175 175 175 175 172 169 167 165 166 169 169 172 172 174 178 178 193 237 274 301 317 321 322 317 318
272 251 218 124 250 257 251 280 279 286 244 174 127 74 82 138 154 154 158 166 172 171 185 185 177 177 177 176 175 173 172 172 175 178 179 182 180 182 187 195 209 242 266 286 297 310 313 317 321
291 207 89 263 260 260 269 265 266 243 227 152 145 126 78 149 167 163 162 166 175 175 183 194 183 177 176 178 179 175 174 175 178 182 181 189 186 184 191 197 207 224 242 269 287 296 300 300 303
278 150 58 268 260 290 281 292 273 241 153 144 98 103 140 169 174 179 178 176 183 192 202 185 184 179 178 181 185 179 176 173 176 175 178 184 190 191 198 197 206 217 218 250 277 286 294 295 301
169 88 231 238 276 298 299 295 49 26 67 84 139 104 149 169 176 182 185 184 187 194 201 197 185 187 182 185 188 185 181 183 182 181 180 181 189 194 203 201 204 220 229 256 272 283 289 296 305
215 108 287 253 288 275 288 307 315 54 75 125 111 163 179 183 177 179 181 186 193 195 201 197 197 199 199 200 194 190 190 187 187 189 186 182 190 188 215 213 210 224 239 261 273 281 288 298 301
251 3 262 247 226 256 290 320 328 118 134 119 124 170 200 172 172 178 186 190 191 192 196 198 207 202 187 189 195 198 199 200 196 201 215 214 200 193 204 213 220 232 246 260 274 282 287 288 296
144 174 239 220 245 253 266 264 306 287 132 84 114 145 164 165 170 177 184 184 185 189 192 195 203 203 191 197 195 207 213 218 212 215 206 205 203 203 206 214 224 241 255 263 259 264 283 297 300
203 203 251 271 263 258 254 270 272 237 209 215 193 161 165 168 174 181 187 188 191 189 196 196 195 194 194 197 198 201 206 211 215 212 207 203 208 210 218 225 236 241 240 232 225 216 240 269 300
298 248 230 287 315 299 284 316 279 229 232 248 222 184 171 178 182 186 190 188 192 192 194 196 195 189 195 199 205 207 208 208 208 209 211 209 216 219 224 231 226 215 211 205 203 201 238 289 331
210 299 317 311 306 302 296 266 262 278 200 207 186 181 184 186 187 190 194 195 194 198 197 191 185 180 184 185 200 206 205 203 205 206 211 209 218 227 229 216 204 197 194 196 194 200 261 352 353
293 313 304 308 298 299 279 284 264 278 191 176 183 187 192 192 188 188 197 199 199 200 201 188 182 189 189 192 202 205 206 205 208 210 214 217 216 217 208 202 195 192 189 185 183 206 306 19 4
293 298 317 284 288 295 286 296 221 266 193 180 188 193 191 193 186 196 199 198 195 196 196 188 187 192 192 197 202 211 222 217 215 215 212 215 212 205 197 197 195 191 195 193 187 298 352 25 35
286 310 300 288 335 287 117 287 281 265 186 188 192 195 197 195 196 199 203 197 189 189 190 188 188 189 193 198 207 216 223 220 209 207 204 204 201 193 191 195 199 198 204 208 208 233 148 103 113
303 251 252 292 252 347 87 297 305 317 191 190 191 197 201 200 202 204 205 195 189 188 186 188 190 197 200 207 213 218 217 213 202 198 198 195 192 191 198 201 202 203 206 219 232 205 132 166 141
238 261 282 266 288 360 311 267 286 278 262 205 198 199 199 201 204 201 199 191 188 184 186 190 191 197 201 206 208 213 213 201 194 191 192 191 190 193 199 202 207 207 209 222 244 253 153 143 145
254 260 258 258 282 320 281 273 275 289 230 237 209 196 199 199 194 194 187 187 184 184 185 191 195 197 200 200 201 206 207 199 192 188 189 192 192 193 202 206 208 208 207 220 222 174 133 136 152
251 253 262 281 281 302 293 288 247 261 266 244 246 229 191 172 181 185 185 184 186 185 189 196 197 194 195 202 208 211 202 194 196 191 188 190 194 198 205 207 212 223 236 258 268 218 152 139 163
239 233 258 263 290 277 279 285 295 227 262 283 274 246 198 185 176 178 182 184 187 187 195 195 195 196 194 192 190 190 197 201 194 188 189 188 191 192 196 202 212 232 249 255 250 218 170 167 163
277 221 260 278 315 273 148 283 268 275 281 284 274 238 195 184 175 178 181 186 188 188 188 194 193 190 183 182 188 195 200 198 189 189 188 188 184 189 191 201 220 234 249 265 264 234 159 158 180
274 259 243 231 231 331 232 221 274 43 267 269 270 272 219 191 183 183 189 188 186 184 186 192 191 184 184 190 201 202 204 208 198 187 190 191 190 189 193 200 214 223 235 261 272 268 161 170 180
274 266 250 203 171 257 263 209 273 275 269 279 274 265 230 186 180 177 180 182 180 182 184 190 190 190 194 189 194 204 219 213 202 198 197 196 191 191 190 196 201 223 226 237 235 245 154 139 148
284 307 286 284 215 246 271 225 242 273 224 220 163 102 165 167 166 170 174 176 178 184 187 191 192 190 188 188 193 206 213 215 209 210 208 199 193 191 193 192 205 210 221 226 237 239 148 125 130
273 194 202 261 262 267 236 232 236 219 214 196 173 164 156 161 165 167 177 179 185 190 191 190 192 196 197 203 206 204 210 207 212 218 210 203 198 197 196 199 201 205 214 219 217 208 180 142 133
273 237 225 258 261 259 248 280 292 71 48 27 161 162 166 168 175 177 182 186 193 199 196 193 196 201 205 208 208 204 205 208 213 212 207 203 200 201 198 202 206 209 210 210 207 187 166 151 138
215 265 305 270 248 255 243 243 240 255 119 79 69 44 178 174 172 179 188 194 198 203 199 201 205 206 204 204 208 207 205 206 210 209 205 204 205 203 205 207 203 205 202 199 191 180 163 169 158
342 294 302 292 244 253 269 252 286 323 346 28 70 71 79 151 180 186 196 198 203 202 202 202 205 206 203 200 199 203 201 204 206 207 208 210 207 207 207 205 207 202 199 191 187 182 173 166 162
251 264 231 206 230 205 214 248 318 330 85 70 57 24 348 135 138 212 216 207 206 203 203 203 201 204 202 200 198 200 201 200 204 206 208 209 208 209 206 203 203 198 196 190 187 183 172 164 155
Height
1509 1508 1508 1508 1518 1522 1522 1509 1493 1489 1483 1477 1475 1473 1482 1490 1490 1500 1493 1495 1497 1500 1504 1507 1511 1513 1513 1515 1516 1518 1519 1520 1522 1524 1526 1528 1529 1530 1532 1533 1534 1535 1535 1535 1536 1536 1536 1536 1536
1507 1507 1507 1506 1522 1532 1519 1493 1490 1482 1477 1475 1476 1480 1484 1493 1493 1493 1496 1497 1498 1501 1504 1506 1510 1512 1513 1515 1515 1517 1518 1520 1522 1523 1524 1526 1528 1530 1531 1532 1533 1534 1535 1534 1535 1535 1535 1535 1535
1506 1505 1507 1510 1524 1525 1515 1489 1483 1478 1476 1473 1476 1479 1484 1491 1492 1493 1495 1497 1499 1501 1503 1506 1508 1510 1513 1515 1515 1516 1518 1519 1521 1522 1524 1525 1527 1528 1530 1531 1532 1533 1534 1534 1533 1533 1533 1534 1533
1504 1505 1507 1512 1514 1502 1495 1483 1479 1476 1473 1471 1472 1482 1487 1489 1490 1493 1494 1497 1498 1501 1504 1505 1507 1509 1512 1514 1514 1515 1517 1519 1520 1522 1524 1526 1526 1527 1529 1530 1531 1532 1532 1533 1532 1532 1532 1533 1532
1502 1501 1511 1513 1508 1496 1487 1478 1474 1473 1468 1467 1470 1484 1489 1490 1490 1493 1494 1497 1499 1501 1503 1505 1507 1509 1510 1512 1514 1515 1517 1519 1521 1523 1524 1525 1526 1527 1527 1528 1529 1531 1531 1532 1532 1531 1531 1531 1531
1501 1501 1515 1520 1504 1489 1482 1470 1465 1465 1465 1467 1469 1478 1488 1490 1491 1492 1494 1497 1499 1501 1503 1506 1508 1509 1509 1511 1513 1514 1516 1518 1520 1522 1523 1523 1525 1526 1527 1527 1528 1529 1529 1530 1531 1530 1530 1530 1529
1500 1505 1510 1505 1499 1492 1477 1469 1468 1469 1468 1469 1469 1477 1484 1486 1490 1491 1493 1496 1499 1501 1503 1506 1508 1509 1510 1512 1512 1514 1515 1517 1518 1520 1520 1521 1522 1523 1526 1525 1526 1528 1527 1529 1529 1529 1530 1528 1528
1495 1500 1503 1500 1498 1495 1477 1471 1468 1467 1470 1471 1473 1475 1481 1478 1484 1490 1493 1496 1497 1499 1502 1505 1507 1508 1509 1512 1513 1514 1515 1515 1517 1518 1520 1521 1521 1521 1522 1525 1525 1526 1526 1526 1527 1528 1527 1526 1526
1494 1504 1509 1501 1495 1484 1473 1474 1468 1466 1466 1469 1469 1469 1468 1471 1479 1486 1491 1494 1495 1498 1500 1503 1504 1506 1508 1510 1512 1514 1514 1515 1516 1518 1520 1520 1521 1521 1521 1523 1522 1524 1523 1524 1526 1526 1525 1525 1524
1490 1502 1493 1483 1480 1478 1473 1470 1468 1467 1467 1466 1467 1468 1468 1468 1475 1481 1485 1489 1492 1495 1498 1500 1502 1504 1506 1508 1509 1511 1513 1514 1515 1516 1517 1518 1519 1518 1518 1519 1520 1522 1522 1524 1525 1525 1524 1524 1523
1484 1489 1479 1476 1473 1475 1471 1467 1464 1463 1466 1465 1461 1461 1466 1469 1474 1477 1480 1483 1488 1491 1495 1498 1500 1502 1504 1505 1506 1508 1510 1511 1513 1514 1515 1516 1516 1517 1517 1519 1520 1520 1521 1523 1523 1523 1522 1521 1520
1488 1478 1476 1473 1473 1470 1468 1465 1462 1460 1458 1457 1458 1459 1461 1464 1467 1472 1476 1480 1483 1487 1491 1494 1497 1500 1501 1502 1505 1506 1507 1509 1511 1512 1513 1515 1515 1515 1516 1517 1517 1519 1520 1521 1522 1522 1521 1520 1519
1479 1475 1472 1469 1466 1465 1463 1463 1464 1455 1456 1457 1458 1462 1463 1463 1465 1472 1477 1480 1482 1485 1488 1491 1495 1497 1498 1500 1501 1503 1506 1508 1509 1511 1512 1513 1513 1514 1515 1515 1516 1517 1519 1520 1520 1520 1520 1519 1518
1477 1473 1470 1465 1459 1457 1460 1457 1460 1455 1453 1453 1455 1458 1461 1460 1462 1468 1472 1475 1479 1484 1487 1489 1491 1493 1496 1498 1499 1501 1504 1507 1508 1509 1510 1511 1512 1513 1513 1514 1515 1517 1517 1518 1518 1519 1518 1518 1517
1477 1475 1469 1460 1458 1458 1454 1458 1457 1452 1453 1451 1452 1453 1454 1458 1463 1462 1464 1468 1473 1478 1485 1489 1491 1492 1494 1496 1498 1500 1502 1504 1506 1508 1508 1509 1510 1511 1512 1513 1514 1515 1516 1517 1517 1517 1517 1516 1515
1477 1475 1477 1458 1457 1453 1455 1468 1446 1446 1448 1452 1450 1452 1454 1455 1454 1457 1460 1466 1470 1475 1477 1482 1487 1491 1494 1496 1498 1499 1501 1503 1504 1506 1506 1508 1510 1511 1511 1512 1513 1515 1515 1515 1516 1516 1515 1514 1513
1482 1486 1476 1467 1455 1455 1456 1460 1448 1445 1443 1444 1444 1444 1446 1451 1452 1453 1456 1461 1466 1470 1475 1480 1484 1488 1492 1494 1496 1498 1500 1502 1504 1506 1506 1507 1508 1509 1510 1511 1512 1513 1514 1514 1514 1514 1514 1513 1512
1484 1481 1476 1473 1458 1454 1456 1455 1448 1446 1447 1441 1439 1439 1440 1441 1442 1446 1451 1458 1464 1467 1470 1475 1480 1484 1488 1491 1493 1496 1498 1501 1503 1504 1505 1506 1507 1507 1508 1510 1511 1512 1512 1512 1512 1513 1512 1511 1511
1474 1476 1477 1465 1455 1454 1454 1451 1447 1441 1439 1436 1437 1434 1434 1434 1441 1445 1451 1456 1460 1465 1468 1470 1474 1480 1484 1487 1491 1494 1497 1499 1502 1503 1503 1504 1505 1506 1507 1509 1510 1510 1511 1510 1511 1511 1511 1509 1509
1466 1471 1470 1458 1452 1453 1451 1439 1443 1441 1436 1435 1436 1437 1436 1435 1438 1442 1446 1451 1454 1458 1465 1468 1470 1475 1480 1484 1489 1493 1496 1498 1500 1501 1502 1503 1505 1506 1507 1508 1508 1509 1509 1508 1508 1508 1509 1508 1508
1461 1462 1462 1461 1452 1451 1451 1438 1440 1436 1433 1430 1427 1427 1430 1427 1431 1436 1443 1447 1450 1455 1461 1466 1469 1472 1475 1479 1484 1490 1494 1496 1497 1499 1501 1502 1504 1505 1506 1507 1507 1508 1507 1507 1506 1506 1506 1505 1506
1464 1452 1453 1454 1456 1464 1445 1454 1434 1430 1428 1423 1417 1417 1419 1423 1429 1434 1437 1441 1446 1451 1458 1464 1467 1468 1473 1477 1481 1485 1489 1492 1496 1498 1499 1501 1502 1503 1504 1505 1505 1507 1507 1505 1504 1503 1503 1503 1503
1450 1446 1447 1447 1452 1456 1446 1463 1414 1428 1430 1420 1413 1410 1414 1414 1416 1418 1424 1430 1441 1447 1455 1460 1464 1467 1471 1473 1478 1483 1487 1491 1494 1496 1498 1499 1500 1501 1502 1503 1504 1504 1504 1503 1502 1502 1502 1501 1502
1444 1446 1444 1445 1453 1461 1429 1451 1432 1423 1420 1413 1405 1401 1401 1402 1411 1419 1424 1428 1438 1443 1449 1456 1459 1463 1466 1470 1475 1480 1483 1487 1490 1493 1495 1497 1499 1500 1501 1502 1502 1502 1502 1502 1501 1500 1501 1500 1501
1445 1452 1464 1465 1462 1447 1425 1440 1423 1411 1410 1407 1405 1403 1404 1404 1405 1409 1418 1428 1434 1442 1443 1450 1455 1460 1464 1468 1473 1477 1481 1485 1488 1491 1493 1495 1496 1498 1499 1500 1500 1500 1500 1500 1500 1499 1500 1501 1501
1442 1448 1465 1453 1447 1433 1427 1430 1420 1402 1401 1397 1396 1397 1401 1405 1409 1414 1422 1425 1432 1437 1443 1447 1450 1457 1462 1466 1471 1476 1479 1482 1485 1488 1491 1493 1495 1497 1498 1498 1498 1498 1499 1499 1499 1499 1500 1501 1502
1433 1437 1430 1436 1431 1437 1423 1417 1405 1399 1402 1401 1398 1397 1397 1398 1403 1410 1420 1429 1436 1439 1443 1445 1448 1455 1457 1462 1468 1471 1475 1478 1482 1485 1489 1492 1493 1495 1495 1495 1496 1497 1498 1498 1500 1500 1500 1501 1503
1433 1426 1439 1435 1433 1426 1420 1419 1422 1405 1402 1400 1405 1408 1409 1408 1409 1414 1415 1420 1429 1439 1441 1444 1449 1451 1453 1458 1464 1468 1471 1475 1479 1483 1486 1489 1491 1492 1493 1494 1495 1496 1497 1498 1499 1500 1502 1503 1503
1438 1435 1430 1428 1424 1423 1432 1428 1412 1412 1411 1408 1407 1408 1412 1412 1414 1415 1417 1422 1428 1433 1435 1440 1446 1447 1450 1455 1459 1465 1467 1471 1475 1480 1484 1486 1488 1490 1491 1492 1493 1496 1496 1497 1498 1500 1502 1503 1503
1431 1429 1430 1439 1427 1427 1426 1421 1411 1409 1413 1412 1409 1411 1415 1415 1416 1421 1424 1423 1427 1428 1430 1435 1440 1443 1448 1451 1455 1462 1464 1468 1473 1477 1480 1483 1485 1487 1489 1491 1492 1494 1495 1496 1499 1501 1501 1503 1503